| time (UTC) | temp F | wind direction | speed MPH | gust MPH | rain 1hr in | rain 24hr in | rain mn in | humidity % | barometer mb |
| 20260507113624 | 60 | 11 | 2.0 | 4.0 | 0.00 | 0.00 | 0.00 | 65 | 1014.4 |
| 20260507112622 | 59 | 39 | 2.0 | 7.0 | 0.00 | 0.00 | 0.00 | 69 | 1014.6 |
| 20260507111622 | 58 | 240 | 2.0 | 4.0 | 0.00 | 0.00 | 0.00 | 71 | 1014.6 |
| 20260507110659 | 57 | 351 | 3.0 | 7.0 | 0.00 | 0.00 | 0.00 | 72 | 1014.6 |
| 20260507105617 | 56 | 24 | 1.0 | 4.0 | 0.00 | 0.00 | 0.00 | 74 | 1014.7 |
| 20260507104614 | 56 | 26 | 2.0 | 6.0 | 0.00 | 0.00 | 0.00 | 74 | 1014.7 |
| 20260507103632 | 56 | 9 | 2.0 | 4.0 | 0.00 | 0.00 | 0.00 | 74 | 1014.7 |
| 20260507102610 | 56 | 221 | 1.0 | 2.0 | 0.00 | 0.00 | 0.00 | 73 | 1014.7 |
| 20260507101608 | 56 | 123 | 1.0 | 2.0 | 0.00 | 0.00 | 0.00 | 75 | 1014.7 |
| 20260507100606 | 56 | 2 | 2.0 | 5.0 | 0.00 | 0.00 | 0.00 | 75 | 1014.8 |
| 20260507095604 | 56 | 25 | 2.0 | 6.0 | 0.00 | 0.00 | 0.00 | 76 | 1014.6 |
| 20260507094602 | 56 | 22 | 3.0 | 6.0 | 0.00 | 0.00 | 0.00 | 77 | 1014.7 |
| 20260507093559 | 56 | 325 | 2.0 | 6.0 | 0.00 | 0.00 | 0.00 | 77 | 1014.6 |
| 20260507092558 | 55 | 225 | 2.0 | 4.0 | 0.00 | 0.00 | 0.00 | 79 | 1014.5 |
| 20260507091556 | 55 | 315 | 1.0 | 4.0 | 0.00 | 0.00 | 0.00 | 80 | 1014.4 |
| 20260507090555 | 54 | 52 | 1.0 | 4.0 | 0.00 | 0.00 | 0.00 | 81 | 1014.4 |
| 20260507085552 | 53 | 162 | 1.0 | 3.0 | 0.00 | 0.00 | 0.00 | 82 | 1014.4 |
| 20260507084549 | 53 | 215 | 1.0 | 3.0 | 0.00 | 0.00 | 0.00 | 82 | 1014.4 |
| 20260507083547 | 53 | 33 | 1.0 | 4.0 | 0.00 | 0.00 | 0.00 | 82 | 1014.5 |
| 20260507082545 | 52 | 17 | 2.0 | 4.0 | 0.00 | 0.00 | 0.00 | 83 | 1014.4 |
| 20260507081543 | 52 | 8 | 1.0 | 4.0 | 0.00 | 0.00 | 0.00 | 84 | 1014.4 |
| 20260507080541 | 52 | 23 | 1.0 | 2.0 | 0.00 | 0.00 | 0.00 | 85 | 1014.4 |
| 20260507075540 | 51 | 25 | 2.0 | 4.0 | 0.00 | 0.00 | 0.00 | 86 | 1014.4 |
| 20260507074537 | 51 | 21 | 1.0 | 3.0 | 0.00 | 0.00 | 0.00 | 87 | 1014.4 |
| 20260507073535 | 50 | 90 | 1.0 | 2.0 | 0.00 | 0.00 | 0.00 | 88 | 1014.4 |
| 20260507072534 | 50 | 37 | 1.0 | 2.0 | 0.00 | 0.00 | 0.00 | 88 | 1014.3 |
| 20260507071531 | 50 | 7 | 1.0 | 2.0 | 0.00 | 0.00 | 0.00 | 88 | 1014.3 |
| 20260507070529 | 49 | 10 | 2.0 | 3.0 | 0.00 | 0.00 | 0.00 | 89 | 1014.2 |
| 20260507065527 | 49 | 32 | 2.0 | 3.0 | 0.00 | 0.00 | 0.00 | 89 | 1014.2 |
| 20260507064546 | 48 | 17 | 2.0 | 3.0 | 0.00 | 0.00 | 0.00 | 89 | 1014.2 |
| 20260507063522 | 48 | 344 | 1.0 | 3.0 | 0.00 | 0.00 | 0.00 | 89 | 1014.1 |
| 20260507062521 | 48 | 0 | 1.0 | 4.0 | 0.00 | 0.00 | 0.00 | 89 | 1014.1 |
| 20260507061519 | 48 | 349 | 2.0 | 4.0 | 0.00 | 0.00 | 0.00 | 89 | 1014.0 |
| 20260507060517 | 47 | 352 | 2.0 | 5.0 | 0.00 | 0.00 | 0.00 | 88 | 1014.0 |
| 20260507055555 | 47 | 345 | 2.0 | 5.0 | 0.00 | 0.00 | 0.00 | 88 | 1013.9 |
| 20260507054513 | 47 | 338 | 2.0 | 4.0 | 0.00 | 0.00 | 0.00 | 88 | 1013.9 |
| 20260507053511 | 47 | 343 | 2.0 | 4.0 | 0.00 | 0.00 | 0.00 | 88 | 1013.8 |
| 20260507052509 | 47 | 335 | 2.0 | 5.0 | 0.00 | 0.00 | 0.00 | 88 | 1013.7 |
| 20260507051508 | 47 | 337 | 2.0 | 4.0 | 0.00 | 0.00 | 0.00 | 88 | 1013.6 |
| 20260507050506 | 47 | 324 | 1.0 | 4.0 | 0.00 | 0.00 | 0.00 | 88 | 1013.6 |
| 20260507045503 | 47 | 340 | 1.0 | 4.0 | 0.00 | 0.00 | 0.00 | 88 | 1013.5 |
| 20260507044501 | 47 | 336 | 1.0 | 3.0 | 0.00 | 0.00 | 0.00 | 88 | 1013.4 |
| 20260507043458 | 47 | 326 | 1.0 | 2.0 | 0.00 | 0.00 | 0.00 | 88 | 1013.3 |
| 20260507042456 | 47 | 329 | 1.0 | 3.0 | 0.00 | 0.00 | 0.00 | 87 | 1013.3 |
| 20260507041454 | 47 | 341 | 1.0 | 3.0 | 0.00 | 0.00 | 0.00 | 87 | 1013.2 |
| 20260507040452 | 47 | 335 | 2.0 | 4.0 | 0.00 | 0.00 | 0.00 | 87 | 1013.3 |
| 20260507035450 | 47 | 328 | 1.0 | 4.0 | 0.00 | 0.00 | 0.00 | 87 | 1013.2 |
| 20260507034449 | 47 | 330 | 2.0 | 4.0 | 0.00 | 0.00 | 0.00 | 87 | 1013.1 |
| 20260507033446 | 47 | 337 | 2.0 | 3.0 | 0.00 | 0.00 | 0.00 | 87 | 1013.1 |
| 20260507032444 | 47 | 336 | 1.0 | 4.0 | 0.00 | 0.00 | 0.00 | 87 | 1013.1 |
| 20260507031443 | 47 | 343 | 2.0 | 5.0 | 0.00 | 0.00 | 0.00 | 87 | 1013.2 |
| 20260507030440 | 47 | 338 | 2.0 | 4.0 | 0.00 | 0.00 | 0.00 | 87 | 1013.2 |
| 20260507025438 | 47 | 321 | 2.0 | 4.0 | 0.00 | 0.00 | 0.00 | 87 | 1013.2 |
| 20260507024436 | 47 | 320 | 8.0 | 14.0 | 0.00 | 0.00 | 0.00 | 87 | 1013.2 |
| 20260507023434 | 0 | 0.0 | 0.0 | 0.00 | 0.00 | 0.00 | |||
| 20260507022432 | 0 | 0.0 | 0.0 | 0.00 | 0.00 | 0.00 | |||
| 20260507021450 | 0 | 0.0 | 0.0 | 0.00 | 0.00 | 0.00 | |||
| 20260507020427 | 0 | 0.0 | 0.0 | 0.00 | 0.00 | 0.00 | |||
| 20260507015426 | 0 | 0.0 | 0.0 | 0.00 | 0.00 | 0.00 | |||
| 20260507014424 | 0 | 0.0 | 0.0 | 0.00 | 0.00 | 0.00 | |||
| 20260507013443 | 0 | 0.0 | 0.0 | 0.00 | 0.00 | 0.00 | |||
| 20260507012420 | 0 | 0.0 | 0.0 | 0.00 | 0.00 | 0.00 | |||
| 20260507011418 | 0 | 0.0 | 0.0 | 0.00 | 0.00 | 0.00 | |||
| 20260507010436 | 0 | 0.0 | 0.0 | 0.00 | 0.00 | 0.00 | |||
| 20260507005414 | 0 | 0.0 | 0.0 | 0.00 | 0.00 | 0.00 | |||
| 20260507004452 | 0 | 0.0 | 0.0 | 0.00 | 0.00 | 0.00 | |||
| 20260507003410 | 0 | 0.0 | 0.0 | 0.00 | 0.00 | 0.00 | |||
| 20260507002408 | 0 | 0.0 | 0.0 | 0.00 | 0.00 | 0.00 | |||
| 20260507001405 | 0 | 0.0 | 0.0 | 0.00 | 0.00 | 0.00 | |||
| 20260507000424 | 0 | 0.0 | 0.0 | 0.00 | 0.00 | 0.00 | |||
| 20260506235403 | 0 | 0.0 | 0.0 | 0.00 | 0.00 | 0.00 | |||
| 20260506234400 | 0 | 0.0 | 0.0 | 0.00 | 0.00 | 0.00 | |||
| 20260506233438 | 0 | 0.0 | 0.0 | 0.00 | 0.00 | 0.00 | |||
| 20260506232356 | 0 | 0.0 | 0.0 | 0.00 | 0.00 | 0.00 | |||
| 20260506231353 | 0 | 0.0 | 0.0 | 0.00 | 0.00 | 0.00 | |||
| 20260506230412 | 0 | 0.0 | 0.0 | 0.00 | 0.00 | 0.00 | |||
| 20260506225349 | 0 | 0.0 | 0.0 | 0.00 | 0.00 | 0.00 | |||
| 20260506224347 | 0 | 0.0 | 0.0 | 0.00 | 0.00 | 0.00 | |||
| 20260506223345 | 0 | 0.0 | 0.0 | 0.00 | 0.00 | 0.00 | |||
| 20260506222342 | 0 | 0.0 | 0.0 | 0.00 | 0.00 | 0.00 | |||
| 20260506221400 | 0 | 0.0 | 0.0 | 0.00 | 0.00 | 0.00 | |||
| 20260506220338 | 0 | 0.0 | 0.0 | 0.00 | 0.00 | 0.00 | |||
| 20260506215336 | 0 | 0.0 | 0.0 | 0.00 | 0.00 | 0.00 | |||
| 20260506214355 | 0 | 0.0 | 0.0 | 0.00 | 0.00 | 0.00 | |||
| 20260506213332 | 0 | 0.0 | 0.0 | 0.00 | 0.00 | 0.00 | |||
| 20260506212330 | 0 | 0.0 | 0.0 | 0.00 | 0.00 | 0.00 | |||
| 20260506211328 | 0 | 0.0 | 0.0 | 0.00 | 0.00 | 0.00 | |||
| 20260506210325 | 0 | 0.0 | 0.0 | 0.00 | 0.00 | 0.00 | |||
| 20260506205322 | 0 | 0.0 | 0.0 | 0.00 | 0.00 | 0.00 | |||
| 20260506204320 | 0 | 0.0 | 0.0 | 0.00 | 0.00 | 0.00 | |||
| 20260506203318 | 0 | 0.0 | 0.0 | 0.00 | 0.00 | 0.00 | |||
| 20260506202316 | 0 | 0.0 | 0.0 | 0.00 | 0.00 | 0.00 | |||
| 20260506201354 | 0 | 0.0 | 0.0 | 0.00 | 0.00 | 0.00 | |||
| 20260506200312 | 0 | 0.0 | 0.0 | 0.00 | 0.00 | 0.00 | |||
| 20260506195331 | 0 | 0.0 | 0.0 | 0.00 | 0.00 | 0.00 | |||
| 20260506194308 | 0 | 0.0 | 0.0 | 0.00 | 0.00 | 0.00 | |||
| 20260506193306 | 0 | 0.0 | 0.0 | 0.00 | 0.00 | 0.00 | |||
| 20260506192324 | 0 | 0.0 | 0.0 | 0.00 | 0.00 | 0.00 | |||
| 20260506191302 | 0 | 0.0 | 0.0 | 0.00 | 0.00 | 0.00 | |||
| 20260506190259 | 0 | 0.0 | 0.0 | 0.00 | 0.00 | 0.00 | |||
| 20260506185319 | 0 | 0.0 | 0.0 | 0.00 | 0.00 | 0.00 | |||
| 20260506184256 | 0 | 0.0 | 0.0 | 0.00 | 0.00 | 0.00 | |||
| 20260506183253 | 0 | 0.0 | 0.0 | 0.00 | 0.00 | 0.00 | |||
| 20260506182310 | 0 | 0.0 | 0.0 | 0.00 | 0.00 | 0.00 | |||
| 20260506181248 | 0 | 0.0 | 0.0 | 0.00 | 0.00 | 0.00 | |||
| 20260506180246 | 0 | 0.0 | 0.0 | 0.00 | 0.00 | 0.00 | |||
| 20260506175244 | 0 | 0.0 | 0.0 | 0.00 | 0.00 | 0.00 | |||
| 20260506174242 | 0 | 0.0 | 0.0 | 0.00 | 0.00 | 0.00 | |||
| 20260506173239 | 0 | 0.0 | 0.0 | 0.00 | 0.00 | 0.00 | |||
| 20260506172237 | 0 | 0.0 | 0.0 | 0.00 | 0.00 | 0.00 | |||
| 20260506171256 | 0 | 0.0 | 0.0 | 0.00 | 0.00 | 0.00 | |||
| 20260506170233 | 0 | 0.0 | 0.0 | 0.00 | 0.00 | 0.00 | |||
| 20260506165232 | 0 | 0.0 | 0.0 | 0.00 | 0.00 | 0.00 | |||
| 20260506164229 | 0 | 0.0 | 0.0 | 0.00 | 0.00 | 0.00 | |||
| 20260506163227 | 0 | 0.0 | 0.0 | 0.00 | 0.00 | 0.00 | |||
| 20260506162225 | 0 | 0.0 | 0.0 | 0.00 | 0.00 | 0.00 | |||
| 20260506161223 | 0 | 0.0 | 0.0 | 0.00 | 0.00 | 0.00 | |||
| 20260506160220 | 0 | 0.0 | 0.0 | 0.00 | 0.00 | 0.00 | |||
| 20260506155218 | 0 | 0.0 | 0.0 | 0.00 | 0.00 | 0.00 | |||
| 20260506154236 | 0 | 0.0 | 0.0 | 0.00 | 0.00 | 0.00 | |||
| 20260506153235 | 0 | 0.0 | 0.0 | 0.00 | 0.00 | 0.00 | |||
| 20260506152212 | 0 | 0.0 | 0.0 | 0.00 | 0.00 | 0.00 | |||
| 20260506151210 | 0 | 0.0 | 0.0 | 0.00 | 0.00 | 0.00 | |||
| 20260506150209 | 0 | 0.0 | 0.0 | 0.00 | 0.00 | 0.00 | |||
| 20260506145206 | 0 | 0.0 | 0.0 | 0.00 | 0.00 | 0.00 | |||
| 20260506144205 | 0 | 0.0 | 0.0 | 0.00 | 0.00 | 0.00 | |||
| 20260506143242 | 0 | 0.0 | 0.0 | 0.00 | 0.00 | 0.00 | |||
| 20260506142200 | 0 | 0.0 | 0.0 | 0.00 | 0.00 | 0.00 | |||
| 20260506141159 | 0 | 0.0 | 0.0 | 0.00 | 0.00 | 0.00 | |||
| 20260506140216 | 0 | 0.0 | 0.0 | 0.00 | 0.00 | 0.00 | |||
| 20260506135214 | 0 | 0.0 | 0.0 | 0.00 | 0.00 | 0.00 | |||
| 20260506134152 | 0 | 0.0 | 0.0 | 0.00 | 0.00 | 0.00 | |||
| 20260506133151 | 0 | 0.0 | 0.0 | 0.00 | 0.01 | 0.00 | |||
| 20260506132151 | 0 | 0.0 | 0.0 | 0.00 | 0.03 | 0.00 | |||
| 20260506131146 | 0 | 0.0 | 0.0 | 0.00 | 0.04 | 0.00 | |||
| 20260506130145 | 0 | 0.0 | 0.0 | 0.00 | 0.05 | 0.00 | |||
| 20260506125203 | 0 | 0.0 | 0.0 | 0.00 | 0.05 | 0.00 | |||
| 20260506124202 | 0 | 0.0 | 0.0 | 0.00 | 0.06 | 0.00 | |||
| 20260506123148 | 0 | 0.0 | 0.0 | 0.00 | 0.06 | 0.00 | |||
| 20260506122137 | 0 | 0.0 | 0.0 | 0.00 | 0.06 | 0.00 | |||
| 20260506121134 | 0 | 0.0 | 0.0 | 0.00 | 0.06 | 0.00 | |||
| 20260506120132 | 0 | 0.0 | 0.0 | 0.00 | 0.06 | 0.00 | |||
| 20260506115130 | 0 | 0.0 | 0.0 | 0.00 | 0.06 | 0.00 | |||
| 20260506114128 | 0 | 0.0 | 0.0 | 0.00 | 0.06 | 0.00 |